Index of /20260503/WXO-DD/model_rdps/10km/18/077
Name Last modified Size Description
Parent Directory -
20260503T18Z_MSC_RDPS_AbsoluteVorticity_IsbL-0250_RLatLon0.09_PT077H.grib2 2026-05-03 21:03 600K
20260503T18Z_MSC_RDPS_AbsoluteVorticity_IsbL-0500_RLatLon0.09_PT077H.grib2 2026-05-03 21:03 690K
20260503T18Z_MSC_RDPS_AbsoluteVorticity_IsbL-0700_RLatLon0.09_PT077H.grib2 2026-05-03 21:03 618K
20260503T18Z_MSC_RDPS_AbsoluteVorticity_IsbL-0850_RLatLon0.09_PT077H.grib2 2026-05-03 21:03 780K
20260503T18Z_MSC_RDPS_AirTemp_AGL-120m_RLatLon0.09_PT077H.grib2 2026-05-03 21:03 389K
20260503T18Z_MSC_RDPS_AirTemp_AGL-2m_RLatLon0.09_PT077H.grib2 2026-05-03 21:03 622K
20260503T18Z_MSC_RDPS_AirTemp_AGL-40m_RLatLon0.09_PT077H.grib2 2026-05-03 21:03 399K
20260503T18Z_MSC_RDPS_AirTemp_AGL-80m_RLatLon0.09_PT077H.grib2 2026-05-03 21:03 393K
20260503T18Z_MSC_RDPS_AirTemp_IsbL-0001_RLatLon0.09_PT077H.grib2 2026-05-03 21:03 307K
20260503T18Z_MSC_RDPS_AirTemp_IsbL-0005_RLatLon0.09_PT077H.grib2 2026-05-03 21:03 287K
20260503T18Z_MSC_RDPS_AirTemp_IsbL-0010_RLatLon0.09_PT077H.grib2 2026-05-03 21:03 388K
20260503T18Z_MSC_RDPS_AirTemp_IsbL-0020_RLatLon0.09_PT077H.grib2 2026-05-03 21:03 319K
20260503T18Z_MSC_RDPS_AirTemp_IsbL-0030_RLatLon0.09_PT077H.grib2 2026-05-03 21:03 335K
20260503T18Z_MSC_RDPS_AirTemp_IsbL-0050_RLatLon0.09_PT077H.grib2 2026-05-03 21:03 311K
20260503T18Z_MSC_RDPS_AirTemp_IsbL-0100_RLatLon0.09_PT077H.grib2 2026-05-03 21:03 419K
20260503T18Z_MSC_RDPS_AirTemp_IsbL-0150_RLatLon0.09_PT077H.grib2 2026-05-03 21:03 407K
20260503T18Z_MSC_RDPS_AirTemp_IsbL-0175_RLatLon0.09_PT077H.grib2 2026-05-03 21:03 403K
20260503T18Z_MSC_RDPS_AirTemp_IsbL-0200_RLatLon0.09_PT077H.grib2 2026-05-03 21:03 410K
20260503T18Z_MSC_RDPS_AirTemp_IsbL-0225_RLatLon0.09_PT077H.grib2 2026-05-03 21:03 413K
20260503T18Z_MSC_RDPS_AirTemp_IsbL-0250_RLatLon0.09_PT077H.grib2 2026-05-03 21:03 418K
20260503T18Z_MSC_RDPS_AirTemp_IsbL-0275_RLatLon0.09_PT077H.grib2 2026-05-03 21:03 399K
20260503T18Z_MSC_RDPS_AirTemp_IsbL-0300_RLatLon0.09_PT077H.grib2 2026-05-03 21:03 432K
20260503T18Z_MSC_RDPS_AirTemp_IsbL-0350_RLatLon0.09_PT077H.grib2 2026-05-03 21:03 422K
20260503T18Z_MSC_RDPS_AirTemp_IsbL-0400_RLatLon0.09_PT077H.grib2 2026-05-03 21:03 426K
20260503T18Z_MSC_RDPS_AirTemp_IsbL-0450_RLatLon0.09_PT077H.grib2 2026-05-03 21:03 433K
20260503T18Z_MSC_RDPS_AirTemp_IsbL-0500_RLatLon0.09_PT077H.grib2 2026-05-03 21:03 442K
20260503T18Z_MSC_RDPS_AirTemp_IsbL-0550_RLatLon0.09_PT077H.grib2 2026-05-03 21:03 422K
20260503T18Z_MSC_RDPS_AirTemp_IsbL-0600_RLatLon0.09_PT077H.grib2 2026-05-03 21:03 441K
20260503T18Z_MSC_RDPS_AirTemp_IsbL-0650_RLatLon0.09_PT077H.grib2 2026-05-03 21:03 457K
20260503T18Z_MSC_RDPS_AirTemp_IsbL-0700_RLatLon0.09_PT077H.grib2 2026-05-03 21:03 376K
20260503T18Z_MSC_RDPS_AirTemp_IsbL-0750_RLatLon0.09_PT077H.grib2 2026-05-03 21:03 407K
20260503T18Z_MSC_RDPS_AirTemp_IsbL-0800_RLatLon0.09_PT077H.grib2 2026-05-03 21:03 449K
20260503T18Z_MSC_RDPS_AirTemp_IsbL-0850_RLatLon0.09_PT077H.grib2 2026-05-03 21:03 500K
20260503T18Z_MSC_RDPS_AirTemp_IsbL-0875_RLatLon0.09_PT077H.grib2 2026-05-03 21:03 521K
20260503T18Z_MSC_RDPS_AirTemp_IsbL-0900_RLatLon0.09_PT077H.grib2 2026-05-03 21:03 529K
20260503T18Z_MSC_RDPS_AirTemp_IsbL-0925_RLatLon0.09_PT077H.grib2 2026-05-03 21:03 526K
20260503T18Z_MSC_RDPS_AirTemp_IsbL-0950_RLatLon0.09_PT077H.grib2 2026-05-03 21:03 520K
20260503T18Z_MSC_RDPS_AirTemp_IsbL-0970_RLatLon0.09_PT077H.grib2 2026-05-03 21:03 515K
20260503T18Z_MSC_RDPS_AirTemp_IsbL-0985_RLatLon0.09_PT077H.grib2 2026-05-03 21:03 506K
20260503T18Z_MSC_RDPS_AirTemp_IsbL-1000_RLatLon0.09_PT077H.grib2 2026-05-03 21:03 502K
20260503T18Z_MSC_RDPS_AirTemp_IsbL-1015_RLatLon0.09_PT077H.grib2 2026-05-03 21:03 504K
20260503T18Z_MSC_RDPS_Albedo_Sfc_RLatLon0.09_PT077H.grib2 2026-05-03 21:03 152K
20260503T18Z_MSC_RDPS_CAPE_Sfc_RLatLon0.09_PT077H.grib2 2026-05-03 21:03 1.8M
20260503T18Z_MSC_RDPS_CIN_Sfc_RLatLon0.09_PT077H.grib2 2026-05-03 21:03 1.4M
20260503T18Z_MSC_RDPS_CloudWater_EAtm_RLatLon0.09_PT077H.grib2 2026-05-03 21:03 224K
20260503T18Z_MSC_RDPS_ConvectivePrecip-Accum_Sfc_RLatLon0.09_PT077H.grib2 2026-05-03 21:03 1.3M
20260503T18Z_MSC_RDPS_DewPointDepression_AGL-2m_RLatLon0.09_PT077H.grib2 2026-05-03 21:03 417K
20260503T18Z_MSC_RDPS_DewPointDepression_IsbL-0001_RLatLon0.09_PT077H.grib2 2026-05-03 21:03 193
20260503T18Z_MSC_RDPS_DewPointDepression_IsbL-0005_RLatLon0.09_PT077H.grib2 2026-05-03 21:03 193
20260503T18Z_MSC_RDPS_DewPointDepression_IsbL-0010_RLatLon0.09_PT077H.grib2 2026-05-03 21:03 193
20260503T18Z_MSC_RDPS_DewPointDepression_IsbL-0020_RLatLon0.09_PT077H.grib2 2026-05-03 21:03 193
20260503T18Z_MSC_RDPS_DewPointDepression_IsbL-0030_RLatLon0.09_PT077H.grib2 2026-05-03 21:03 193
20260503T18Z_MSC_RDPS_DewPointDepression_IsbL-0050_RLatLon0.09_PT077H.grib2 2026-05-03 21:03 77K
20260503T18Z_MSC_RDPS_DewPointDepression_IsbL-0100_RLatLon0.09_PT077H.grib2 2026-05-03 21:03 113K
20260503T18Z_MSC_RDPS_DewPointDepression_IsbL-0150_RLatLon0.09_PT077H.grib2 2026-05-03 21:03 142K
20260503T18Z_MSC_RDPS_DewPointDepression_IsbL-0175_RLatLon0.09_PT077H.grib2 2026-05-03 21:03 188K
20260503T18Z_MSC_RDPS_DewPointDepression_IsbL-0200_RLatLon0.09_PT077H.grib2 2026-05-03 21:03 228K
20260503T18Z_MSC_RDPS_DewPointDepression_IsbL-0225_RLatLon0.09_PT077H.grib2 2026-05-03 21:03 261K
20260503T18Z_MSC_RDPS_DewPointDepression_IsbL-0250_RLatLon0.09_PT077H.grib2 2026-05-03 21:03 298K
20260503T18Z_MSC_RDPS_DewPointDepression_IsbL-0275_RLatLon0.09_PT077H.grib2 2026-05-03 21:03 308K
20260503T18Z_MSC_RDPS_DewPointDepression_IsbL-0300_RLatLon0.09_PT077H.grib2 2026-05-03 21:03 324K
20260503T18Z_MSC_RDPS_DewPointDepression_IsbL-0350_RLatLon0.09_PT077H.grib2 2026-05-03 21:03 332K
20260503T18Z_MSC_RDPS_DewPointDepression_IsbL-0400_RLatLon0.09_PT077H.grib2 2026-05-03 21:03 344K
20260503T18Z_MSC_RDPS_DewPointDepression_IsbL-0450_RLatLon0.09_PT077H.grib2 2026-05-03 21:03 350K
20260503T18Z_MSC_RDPS_DewPointDepression_IsbL-0500_RLatLon0.09_PT077H.grib2 2026-05-03 21:03 353K
20260503T18Z_MSC_RDPS_DewPointDepression_IsbL-0550_RLatLon0.09_PT077H.grib2 2026-05-03 21:03 363K
20260503T18Z_MSC_RDPS_DewPointDepression_IsbL-0600_RLatLon0.09_PT077H.grib2 2026-05-03 21:03 372K
20260503T18Z_MSC_RDPS_DewPointDepression_IsbL-0650_RLatLon0.09_PT077H.grib2 2026-05-03 21:03 377K
20260503T18Z_MSC_RDPS_DewPointDepression_IsbL-0700_RLatLon0.09_PT077H.grib2 2026-05-03 21:03 387K
20260503T18Z_MSC_RDPS_DewPointDepression_IsbL-0750_RLatLon0.09_PT077H.grib2 2026-05-03 21:03 407K
20260503T18Z_MSC_RDPS_DewPointDepression_IsbL-0800_RLatLon0.09_PT077H.grib2 2026-05-03 21:03 446K
20260503T18Z_MSC_RDPS_DewPointDepression_IsbL-0850_RLatLon0.09_PT077H.grib2 2026-05-03 21:03 481K
20260503T18Z_MSC_RDPS_DewPointDepression_IsbL-0875_RLatLon0.09_PT077H.grib2 2026-05-03 21:03 479K
20260503T18Z_MSC_RDPS_DewPointDepression_IsbL-0900_RLatLon0.09_PT077H.grib2 2026-05-03 21:03 469K
20260503T18Z_MSC_RDPS_DewPointDepression_IsbL-0925_RLatLon0.09_PT077H.grib2 2026-05-03 21:03 457K
20260503T18Z_MSC_RDPS_DewPointDepression_IsbL-0950_RLatLon0.09_PT077H.grib2 2026-05-03 21:03 441K
20260503T18Z_MSC_RDPS_DewPointDepression_IsbL-0970_RLatLon0.09_PT077H.grib2 2026-05-03 21:03 432K
20260503T18Z_MSC_RDPS_DewPointDepression_IsbL-0985_RLatLon0.09_PT077H.grib2 2026-05-03 21:03 429K
20260503T18Z_MSC_RDPS_DewPointDepression_IsbL-1000_RLatLon0.09_PT077H.grib2 2026-05-03 21:03 427K
20260503T18Z_MSC_RDPS_DewPointDepression_IsbL-1015_RLatLon0.09_PT077H.grib2 2026-05-03 21:03 416K
20260503T18Z_MSC_RDPS_DewPoint_AGL-2m_RLatLon0.09_PT077H.grib2 2026-05-03 21:03 308K
20260503T18Z_MSC_RDPS_DownwardLongwaveRadiationFlux-Accum_Sfc_RLatLon0.09_PT077H.grib2 2026-05-03 21:03 435K
20260503T18Z_MSC_RDPS_DownwardShortwaveRadiationFlux-Accum_NTAtm_RLatLon0.09_PT077H.grib2 2026-05-03 21:03 118K
20260503T18Z_MSC_RDPS_DownwardShortwaveRadiationFlux-Accum_Sfc_RLatLon0.09_PT077H.grib2 2026-05-03 21:03 648K
20260503T18Z_MSC_RDPS_FreezingRain-Accum1h_Sfc_RLatLon0.09_PT077H.grib2 2026-05-03 21:03 18K
20260503T18Z_MSC_RDPS_FreezingRain-Accum_Sfc_RLatLon0.09_PT077H.grib2 2026-05-03 21:03 209K
20260503T18Z_MSC_RDPS_GeopotentialHeight_IsbL-0001_RLatLon0.09_PT077H.grib2 2026-05-03 21:03 341K
20260503T18Z_MSC_RDPS_GeopotentialHeight_IsbL-0005_RLatLon0.09_PT077H.grib2 2026-05-03 21:03 335K
20260503T18Z_MSC_RDPS_GeopotentialHeight_IsbL-0010_RLatLon0.09_PT077H.grib2 2026-05-03 21:03 303K
20260503T18Z_MSC_RDPS_GeopotentialHeight_IsbL-0020_RLatLon0.09_PT077H.grib2 2026-05-03 21:03 303K
20260503T18Z_MSC_RDPS_GeopotentialHeight_IsbL-0030_RLatLon0.09_PT077H.grib2 2026-05-03 21:03 401K
20260503T18Z_MSC_RDPS_GeopotentialHeight_IsbL-0050_RLatLon0.09_PT077H.grib2 2026-05-03 21:03 305K
20260503T18Z_MSC_RDPS_GeopotentialHeight_IsbL-0100_RLatLon0.09_PT077H.grib2 2026-05-03 21:03 286K
20260503T18Z_MSC_RDPS_GeopotentialHeight_IsbL-0150_RLatLon0.09_PT077H.grib2 2026-05-03 21:03 228K
20260503T18Z_MSC_RDPS_GeopotentialHeight_IsbL-0175_RLatLon0.09_PT077H.grib2 2026-05-03 21:03 231K
20260503T18Z_MSC_RDPS_GeopotentialHeight_IsbL-0200_RLatLon0.09_PT077H.grib2 2026-05-03 21:03 235K
20260503T18Z_MSC_RDPS_GeopotentialHeight_IsbL-0225_RLatLon0.09_PT077H.grib2 2026-05-03 21:03 267K
20260503T18Z_MSC_RDPS_GeopotentialHeight_IsbL-0250_RLatLon0.09_PT077H.grib2 2026-05-03 21:03 268K
20260503T18Z_MSC_RDPS_GeopotentialHeight_IsbL-0275_RLatLon0.09_PT077H.grib2 2026-05-03 21:03 236K
20260503T18Z_MSC_RDPS_GeopotentialHeight_IsbL-0300_RLatLon0.09_PT077H.grib2 2026-05-03 21:03 235K
20260503T18Z_MSC_RDPS_GeopotentialHeight_IsbL-0350_RLatLon0.09_PT077H.grib2 2026-05-03 21:03 233K
20260503T18Z_MSC_RDPS_GeopotentialHeight_IsbL-0400_RLatLon0.09_PT077H.grib2 2026-05-03 21:03 228K
20260503T18Z_MSC_RDPS_GeopotentialHeight_IsbL-0450_RLatLon0.09_PT077H.grib2 2026-05-03 21:03 295K
20260503T18Z_MSC_RDPS_GeopotentialHeight_IsbL-0500_RLatLon0.09_PT077H.grib2 2026-05-03 21:03 291K
20260503T18Z_MSC_RDPS_GeopotentialHeight_IsbL-0550_RLatLon0.09_PT077H.grib2 2026-05-03 21:03 287K
20260503T18Z_MSC_RDPS_GeopotentialHeight_IsbL-0600_RLatLon0.09_PT077H.grib2 2026-05-03 21:03 285K
20260503T18Z_MSC_RDPS_GeopotentialHeight_IsbL-0650_RLatLon0.09_PT077H.grib2 2026-05-03 21:03 256K
20260503T18Z_MSC_RDPS_GeopotentialHeight_IsbL-0700_RLatLon0.09_PT077H.grib2 2026-05-03 21:03 335K
20260503T18Z_MSC_RDPS_GeopotentialHeight_IsbL-0750_RLatLon0.09_PT077H.grib2 2026-05-03 21:03 338K
20260503T18Z_MSC_RDPS_GeopotentialHeight_IsbL-0800_RLatLon0.09_PT077H.grib2 2026-05-03 21:03 376K
20260503T18Z_MSC_RDPS_GeopotentialHeight_IsbL-0850_RLatLon0.09_PT077H.grib2 2026-05-03 21:03 386K
20260503T18Z_MSC_RDPS_GeopotentialHeight_IsbL-0875_RLatLon0.09_PT077H.grib2 2026-05-03 21:03 390K
20260503T18Z_MSC_RDPS_GeopotentialHeight_IsbL-0900_RLatLon0.09_PT077H.grib2 2026-05-03 21:03 394K
20260503T18Z_MSC_RDPS_GeopotentialHeight_IsbL-0925_RLatLon0.09_PT077H.grib2 2026-05-03 21:03 397K
20260503T18Z_MSC_RDPS_GeopotentialHeight_IsbL-0950_RLatLon0.09_PT077H.grib2 2026-05-03 21:03 399K
20260503T18Z_MSC_RDPS_GeopotentialHeight_IsbL-0970_RLatLon0.09_PT077H.grib2 2026-05-03 21:03 371K
20260503T18Z_MSC_RDPS_GeopotentialHeight_IsbL-0985_RLatLon0.09_PT077H.grib2 2026-05-03 21:03 378K
20260503T18Z_MSC_RDPS_GeopotentialHeight_IsbL-1000_RLatLon0.09_PT077H.grib2 2026-05-03 21:03 390K
20260503T18Z_MSC_RDPS_GeopotentialHeight_IsbL-1015_RLatLon0.09_PT077H.grib2 2026-05-03 21:03 406K
20260503T18Z_MSC_RDPS_Humidex_Sfc_RLatLon0.09_PT077H.grib2 2026-05-03 21:03 2.2M
20260503T18Z_MSC_RDPS_IcePellets-Accum1h_Sfc_RLatLon0.09_PT077H.grib2 2026-05-03 21:03 6.0K
20260503T18Z_MSC_RDPS_IcePellets-Accum_Sfc_RLatLon0.09_PT077H.grib2 2026-05-03 21:03 49K
20260503T18Z_MSC_RDPS_KIndex_Sfc_RLatLon0.09_PT077H.grib2 2026-05-03 21:03 2.5M
20260503T18Z_MSC_RDPS_LatentHeatNetFlux_Sfc_RLatLon0.09_PT077H.grib2 2026-05-03 21:03 371K
20260503T18Z_MSC_RDPS_LiftedIndex-MU-VT_IsbL-0500_RLatLon0.09_PT077H.grib2 2026-05-03 21:03 2.4M
20260503T18Z_MSC_RDPS_NetLongwaveRadiationFlux-Accum_Sfc_RLatLon0.09_PT077H.grib2 2026-05-03 21:03 486K
20260503T18Z_MSC_RDPS_NetShortwaveRadiationFlux-Accum_Sfc_RLatLon0.09_PT077H.grib2 2026-05-03 21:03 646K
20260503T18Z_MSC_RDPS_PlanetaryBoundaryLayerHeight_Sfc_RLatLon0.09_PT077H.grib2 2026-05-03 21:03 1.0M
20260503T18Z_MSC_RDPS_Precip-Accum1h_Sfc_RLatLon0.09_PT077H.grib2 2026-05-03 21:03 1.2M
20260503T18Z_MSC_RDPS_Precip-Accum_Sfc_RLatLon0.09_PT077H.grib2 2026-05-03 21:03 2.3M
20260503T18Z_MSC_RDPS_PrecipRate_Sfc_RLatLon0.09_PT077H.grib2 2026-05-03 21:03 175K
20260503T18Z_MSC_RDPS_PrecipType-Instant_Sfc_RLatLon0.09_PT077H.grib2 2026-05-03 21:03 575K
20260503T18Z_MSC_RDPS_Pressure-Trend3h_Sfc_RLatLon0.09_PT077H.grib2 2026-05-03 21:03 1.2M
20260503T18Z_MSC_RDPS_Pressure_MSL_RLatLon0.09_PT077H.grib2 2026-05-03 21:03 293K
20260503T18Z_MSC_RDPS_Pressure_PVU-1.5_RLatLon0.09_PT077H.grib2 2026-05-03 21:03 2.3M
20260503T18Z_MSC_RDPS_Pressure_PVU-1_RLatLon0.09_PT077H.grib2 2026-05-03 21:03 2.4M
20260503T18Z_MSC_RDPS_Pressure_PVU-2_RLatLon0.09_PT077H.grib2 2026-05-03 21:03 2.4M
20260503T18Z_MSC_RDPS_Pressure_Sfc_RLatLon0.09_PT077H.grib2 2026-05-03 21:03 497K
20260503T18Z_MSC_RDPS_RadiativeTemp_Sfc_RLatLon0.09_PT077H.grib2 2026-05-03 21:03 316K
20260503T18Z_MSC_RDPS_Rain-Accum1h_Sfc_RLatLon0.09_PT077H.grib2 2026-05-03 21:03 615K
20260503T18Z_MSC_RDPS_Rain-Accum_Sfc_RLatLon0.09_PT077H.grib2 2026-05-03 21:03 1.9M
20260503T18Z_MSC_RDPS_RelativeHumidity_AGL-2m_RLatLon0.09_PT077H.grib2 2026-05-03 21:03 1.0M
20260503T18Z_MSC_RDPS_RelativeHumidity_IsbL-0010_RLatLon0.09_PT077H.grib2 2026-05-03 21:03 669K
20260503T18Z_MSC_RDPS_RelativeHumidity_IsbL-0020_RLatLon0.09_PT077H.grib2 2026-05-03 21:03 715K
20260503T18Z_MSC_RDPS_RelativeHumidity_IsbL-0030_RLatLon0.09_PT077H.grib2 2026-05-03 21:03 597K
20260503T18Z_MSC_RDPS_RelativeHumidity_IsbL-0050_RLatLon0.09_PT077H.grib2 2026-05-03 21:03 355K
20260503T18Z_MSC_RDPS_RelativeHumidity_IsbL-0100_RLatLon0.09_PT077H.grib2 2026-05-03 21:03 273K
20260503T18Z_MSC_RDPS_RelativeHumidity_IsbL-0150_RLatLon0.09_PT077H.grib2 2026-05-03 21:03 415K
20260503T18Z_MSC_RDPS_RelativeHumidity_IsbL-0175_RLatLon0.09_PT077H.grib2 2026-05-03 21:03 475K
20260503T18Z_MSC_RDPS_RelativeHumidity_IsbL-0200_RLatLon0.09_PT077H.grib2 2026-05-03 21:03 552K
20260503T18Z_MSC_RDPS_RelativeHumidity_IsbL-0225_RLatLon0.09_PT077H.grib2 2026-05-03 21:03 619K
20260503T18Z_MSC_RDPS_RelativeHumidity_IsbL-0250_RLatLon0.09_PT077H.grib2 2026-05-03 21:03 682K
20260503T18Z_MSC_RDPS_RelativeHumidity_IsbL-0275_RLatLon0.09_PT077H.grib2 2026-05-03 21:03 706K
20260503T18Z_MSC_RDPS_RelativeHumidity_IsbL-0300_RLatLon0.09_PT077H.grib2 2026-05-03 21:03 750K
20260503T18Z_MSC_RDPS_RelativeHumidity_IsbL-0350_RLatLon0.09_PT077H.grib2 2026-05-03 21:03 774K
20260503T18Z_MSC_RDPS_RelativeHumidity_IsbL-0400_RLatLon0.09_PT077H.grib2 2026-05-03 21:03 793K
20260503T18Z_MSC_RDPS_RelativeHumidity_IsbL-0450_RLatLon0.09_PT077H.grib2 2026-05-03 21:03 799K
20260503T18Z_MSC_RDPS_RelativeHumidity_IsbL-0500_RLatLon0.09_PT077H.grib2 2026-05-03 21:03 801K
20260503T18Z_MSC_RDPS_RelativeHumidity_IsbL-0550_RLatLon0.09_PT077H.grib2 2026-05-03 21:03 817K
20260503T18Z_MSC_RDPS_RelativeHumidity_IsbL-0600_RLatLon0.09_PT077H.grib2 2026-05-03 21:03 835K
20260503T18Z_MSC_RDPS_RelativeHumidity_IsbL-0650_RLatLon0.09_PT077H.grib2 2026-05-03 21:03 857K
20260503T18Z_MSC_RDPS_RelativeHumidity_IsbL-0700_RLatLon0.09_PT077H.grib2 2026-05-03 21:03 870K
20260503T18Z_MSC_RDPS_RelativeHumidity_IsbL-0750_RLatLon0.09_PT077H.grib2 2026-05-03 21:03 909K
20260503T18Z_MSC_RDPS_RelativeHumidity_IsbL-0800_RLatLon0.09_PT077H.grib2 2026-05-03 21:03 1.0M
20260503T18Z_MSC_RDPS_RelativeHumidity_IsbL-0850_RLatLon0.09_PT077H.grib2 2026-05-03 21:03 1.0M
20260503T18Z_MSC_RDPS_RelativeHumidity_IsbL-0875_RLatLon0.09_PT077H.grib2 2026-05-03 21:03 1.1M
20260503T18Z_MSC_RDPS_RelativeHumidity_IsbL-0900_RLatLon0.09_PT077H.grib2 2026-05-03 21:03 1.1M
20260503T18Z_MSC_RDPS_RelativeHumidity_IsbL-0925_RLatLon0.09_PT077H.grib2 2026-05-03 21:03 1.1M
20260503T18Z_MSC_RDPS_RelativeHumidity_IsbL-0950_RLatLon0.09_PT077H.grib2 2026-05-03 21:03 1.1M
20260503T18Z_MSC_RDPS_RelativeHumidity_IsbL-0970_RLatLon0.09_PT077H.grib2 2026-05-03 21:03 1.0M
20260503T18Z_MSC_RDPS_RelativeHumidity_IsbL-0985_RLatLon0.09_PT077H.grib2 2026-05-03 21:03 1.0M
20260503T18Z_MSC_RDPS_RelativeHumidity_IsbL-1000_RLatLon0.09_PT077H.grib2 2026-05-03 21:03 1.0M
20260503T18Z_MSC_RDPS_RelativeHumidity_IsbL-1015_RLatLon0.09_PT077H.grib2 2026-05-03 21:03 1.0M
20260503T18Z_MSC_RDPS_Runoff-Accum_Sfc_RLatLon0.09_PT077H.grib2 2026-05-03 21:03 71K
20260503T18Z_MSC_RDPS_SWEATIndex_Sfc_RLatLon0.09_PT077H.grib2 2026-05-03 21:03 2.4M
20260503T18Z_MSC_RDPS_SeeingIndex_EAtm_RLatLon0.09_PT077H.grib2 2026-05-03 21:03 1.0M
20260503T18Z_MSC_RDPS_SensibleHeatNetFlux_Sfc_RLatLon0.09_PT077H.grib2 2026-05-03 21:03 330K
20260503T18Z_MSC_RDPS_ShowalterIndex_IsbL-0500_RLatLon0.09_PT077H.grib2 2026-05-03 21:03 2.6M
20260503T18Z_MSC_RDPS_SkyTransparencyIndex_EAtm_RLatLon0.09_PT077H.grib2 2026-05-03 21:03 709K
20260503T18Z_MSC_RDPS_Snow-Accum1h_Sfc_RLatLon0.09_PT077H.grib2 2026-05-03 21:03 439K
20260503T18Z_MSC_RDPS_Snow-Accum_Sfc_RLatLon0.09_PT077H.grib2 2026-05-03 21:03 805K
20260503T18Z_MSC_RDPS_SnowDensity_Sfc_RLatLon0.09_PT077H.grib2 2026-05-03 21:03 176K
20260503T18Z_MSC_RDPS_SnowDepth_Sfc_RLatLon0.09_PT077H.grib2 2026-05-03 21:03 651K
20260503T18Z_MSC_RDPS_SoilTemp_DBS-0to10cm_RLatLon0.09_PT077H.grib2 2026-05-03 21:03 251K
20260503T18Z_MSC_RDPS_SoilTemp_Sfc_RLatLon0.09_PT077H.grib2 2026-05-03 21:03 288K
20260503T18Z_MSC_RDPS_SoilVolumetricIceContent_Sfc_RLatLon0.09_PT077H.grib2 2026-05-03 21:03 150K
20260503T18Z_MSC_RDPS_SoilVolumetricWaterContent_DBS-0to10cm_RLatLon0.09_PT077H.grib2 2026-05-03 21:03 282K
20260503T18Z_MSC_RDPS_SoilVolumetricWaterContent_DBS-0to1cm_RLatLon0.09_PT077H.grib2 2026-05-03 21:03 343K
20260503T18Z_MSC_RDPS_SpecificHumidity_AGL-120m_RLatLon0.09_PT077H.grib2 2026-05-03 21:03 495K
20260503T18Z_MSC_RDPS_SpecificHumidity_AGL-2m_RLatLon0.09_PT077H.grib2 2026-05-03 21:03 665K
20260503T18Z_MSC_RDPS_SpecificHumidity_AGL-40m_RLatLon0.09_PT077H.grib2 2026-05-03 21:03 500K
20260503T18Z_MSC_RDPS_SpecificHumidity_AGL-80m_RLatLon0.09_PT077H.grib2 2026-05-03 21:03 496K
20260503T18Z_MSC_RDPS_SpecificHumidity_IsbL-0001_RLatLon0.09_PT077H.grib2 2026-05-03 21:03 378K
20260503T18Z_MSC_RDPS_SpecificHumidity_IsbL-0005_RLatLon0.09_PT077H.grib2 2026-05-03 21:03 365K
20260503T18Z_MSC_RDPS_SpecificHumidity_IsbL-0010_RLatLon0.09_PT077H.grib2 2026-05-03 21:03 396K
20260503T18Z_MSC_RDPS_SpecificHumidity_IsbL-0020_RLatLon0.09_PT077H.grib2 2026-05-03 21:03 372K
20260503T18Z_MSC_RDPS_SpecificHumidity_IsbL-0030_RLatLon0.09_PT077H.grib2 2026-05-03 21:03 360K
20260503T18Z_MSC_RDPS_SpecificHumidity_IsbL-0050_RLatLon0.09_PT077H.grib2 2026-05-03 21:03 468K
20260503T18Z_MSC_RDPS_SpecificHumidity_IsbL-0100_RLatLon0.09_PT077H.grib2 2026-05-03 21:03 442K
20260503T18Z_MSC_RDPS_SpecificHumidity_IsbL-0150_RLatLon0.09_PT077H.grib2 2026-05-03 21:03 463K
20260503T18Z_MSC_RDPS_SpecificHumidity_IsbL-0175_RLatLon0.09_PT077H.grib2 2026-05-03 21:03 446K
20260503T18Z_MSC_RDPS_SpecificHumidity_IsbL-0200_RLatLon0.09_PT077H.grib2 2026-05-03 21:03 475K
20260503T18Z_MSC_RDPS_SpecificHumidity_IsbL-0225_RLatLon0.09_PT077H.grib2 2026-05-03 21:03 457K
20260503T18Z_MSC_RDPS_SpecificHumidity_IsbL-0250_RLatLon0.09_PT077H.grib2 2026-05-03 21:03 514K
20260503T18Z_MSC_RDPS_SpecificHumidity_IsbL-0275_RLatLon0.09_PT077H.grib2 2026-05-03 21:03 472K
20260503T18Z_MSC_RDPS_SpecificHumidity_IsbL-0300_RLatLon0.09_PT077H.grib2 2026-05-03 21:03 446K
20260503T18Z_MSC_RDPS_SpecificHumidity_IsbL-0350_RLatLon0.09_PT077H.grib2 2026-05-03 21:03 441K
20260503T18Z_MSC_RDPS_SpecificHumidity_IsbL-0400_RLatLon0.09_PT077H.grib2 2026-05-03 21:03 525K
20260503T18Z_MSC_RDPS_SpecificHumidity_IsbL-0450_RLatLon0.09_PT077H.grib2 2026-05-03 21:03 461K
20260503T18Z_MSC_RDPS_SpecificHumidity_IsbL-0500_RLatLon0.09_PT077H.grib2 2026-05-03 21:03 510K
20260503T18Z_MSC_RDPS_SpecificHumidity_IsbL-0550_RLatLon0.09_PT077H.grib2 2026-05-03 21:03 582K
20260503T18Z_MSC_RDPS_SpecificHumidity_IsbL-0600_RLatLon0.09_PT077H.grib2 2026-05-03 21:03 633K
20260503T18Z_MSC_RDPS_SpecificHumidity_IsbL-0650_RLatLon0.09_PT077H.grib2 2026-05-03 21:03 551K
20260503T18Z_MSC_RDPS_SpecificHumidity_IsbL-0700_RLatLon0.09_PT077H.grib2 2026-05-03 21:03 592K
20260503T18Z_MSC_RDPS_SpecificHumidity_IsbL-0750_RLatLon0.09_PT077H.grib2 2026-05-03 21:03 657K
20260503T18Z_MSC_RDPS_SpecificHumidity_IsbL-0800_RLatLon0.09_PT077H.grib2 2026-05-03 21:03 734K
20260503T18Z_MSC_RDPS_SpecificHumidity_IsbL-0850_RLatLon0.09_PT077H.grib2 2026-05-03 21:03 816K
20260503T18Z_MSC_RDPS_SpecificHumidity_IsbL-0875_RLatLon0.09_PT077H.grib2 2026-05-03 21:03 705K
20260503T18Z_MSC_RDPS_SpecificHumidity_IsbL-0900_RLatLon0.09_PT077H.grib2 2026-05-03 21:03 715K
20260503T18Z_MSC_RDPS_SpecificHumidity_IsbL-0925_RLatLon0.09_PT077H.grib2 2026-05-03 21:03 717K
20260503T18Z_MSC_RDPS_SpecificHumidity_IsbL-0950_RLatLon0.09_PT077H.grib2 2026-05-03 21:03 713K
20260503T18Z_MSC_RDPS_SpecificHumidity_IsbL-0970_RLatLon0.09_PT077H.grib2 2026-05-03 21:03 703K
20260503T18Z_MSC_RDPS_SpecificHumidity_IsbL-0985_RLatLon0.09_PT077H.grib2 2026-05-03 21:03 696K
20260503T18Z_MSC_RDPS_SpecificHumidity_IsbL-1000_RLatLon0.09_PT077H.grib2 2026-05-03 21:03 693K
20260503T18Z_MSC_RDPS_SpecificHumidity_IsbL-1015_RLatLon0.09_PT077H.grib2 2026-05-03 21:03 680K
20260503T18Z_MSC_RDPS_SpecificHumidity_Sfc_RLatLon0.09_PT077H.grib2 2026-05-03 21:03 340K
20260503T18Z_MSC_RDPS_StormRelativeHelicity_EtaL-10000_RLatLon0.09_PT077H.grib2 2026-05-03 21:03 1.1M
20260503T18Z_MSC_RDPS_StormSeverityIndex_EtaL-10000_RLatLon0.09_PT077H.grib2 2026-05-03 21:03 1.2M
20260503T18Z_MSC_RDPS_Thickness_IsbL-0850to0700_RLatLon0.09_PT077H.grib2 2026-05-03 21:03 176K
20260503T18Z_MSC_RDPS_Thickness_IsbL-1000to0500_RLatLon0.09_PT077H.grib2 2026-05-03 21:03 196K
20260503T18Z_MSC_RDPS_Thickness_IsbL-1000to0850_RLatLon0.09_PT077H.grib2 2026-05-03 21:03 184K
20260503T18Z_MSC_RDPS_TotalCloudCover_Sfc_RLatLon0.09_PT077H.grib2 2026-05-03 21:03 660K
20260503T18Z_MSC_RDPS_TotalTotalsIndex_Sfc_RLatLon0.09_PT077H.grib2 2026-05-03 21:03 2.4M
20260503T18Z_MSC_RDPS_UVIndex-ClearSky_Sfc_RLatLon0.09_PT077H.grib2 2026-05-03 21:03 205K
20260503T18Z_MSC_RDPS_UVIndex_Sfc_RLatLon0.09_PT077H.grib2 2026-05-03 21:03 450K
20260503T18Z_MSC_RDPS_UpwardLongwaveRadiationFlux_NTAtm_RLatLon0.09_PT077H.grib2 2026-05-03 21:03 495K
20260503T18Z_MSC_RDPS_UpwardShortwaveRadiationFlux_NTAtm_RLatLon0.09_PT077H.grib2 2026-05-03 21:03 401K
20260503T18Z_MSC_RDPS_VerticalVelocity_IsbL-0250_RLatLon0.09_PT077H.grib2 2026-05-03 21:03 574K
20260503T18Z_MSC_RDPS_VerticalVelocity_IsbL-0500_RLatLon0.09_PT077H.grib2 2026-05-03 21:03 543K
20260503T18Z_MSC_RDPS_VerticalVelocity_IsbL-0700_RLatLon0.09_PT077H.grib2 2026-05-03 21:03 591K
20260503T18Z_MSC_RDPS_VerticalVelocity_IsbL-0850_RLatLon0.09_PT077H.grib2 2026-05-03 21:03 692K
20260503T18Z_MSC_RDPS_VerticalWindShear_EtaL-6500_RLatLon0.09_PT077H.grib2 2026-05-03 21:03 1.2M
20260503T18Z_MSC_RDPS_WindChill_Sfc_RLatLon0.09_PT077H.grib2 2026-05-03 21:03 1.1M
20260503T18Z_MSC_RDPS_WindDir_AGL-10m_RLatLon0.09_PT077H.grib2 2026-05-03 21:03 948K
20260503T18Z_MSC_RDPS_WindDir_AGL-120m_RLatLon0.09_PT077H.grib2 2026-05-03 21:03 596K
20260503T18Z_MSC_RDPS_WindDir_AGL-40m_RLatLon0.09_PT077H.grib2 2026-05-03 21:03 618K
20260503T18Z_MSC_RDPS_WindDir_AGL-80m_RLatLon0.09_PT077H.grib2 2026-05-03 21:03 605K
20260503T18Z_MSC_RDPS_WindDir_IsbL-0001_RLatLon0.09_PT077H.grib2 2026-05-03 21:03 306K
20260503T18Z_MSC_RDPS_WindDir_IsbL-0005_RLatLon0.09_PT077H.grib2 2026-05-03 21:03 369K
20260503T18Z_MSC_RDPS_WindDir_IsbL-0010_RLatLon0.09_PT077H.grib2 2026-05-03 21:03 376K
20260503T18Z_MSC_RDPS_WindDir_IsbL-0020_RLatLon0.09_PT077H.grib2 2026-05-03 21:03 394K
20260503T18Z_MSC_RDPS_WindDir_IsbL-0030_RLatLon0.09_PT077H.grib2 2026-05-03 21:03 394K
20260503T18Z_MSC_RDPS_WindDir_IsbL-0050_RLatLon0.09_PT077H.grib2 2026-05-03 21:03 417K
20260503T18Z_MSC_RDPS_WindDir_IsbL-0100_RLatLon0.09_PT077H.grib2 2026-05-03 21:03 407K
20260503T18Z_MSC_RDPS_WindDir_IsbL-0150_RLatLon0.09_PT077H.grib2 2026-05-03 21:03 410K
20260503T18Z_MSC_RDPS_WindDir_IsbL-0175_RLatLon0.09_PT077H.grib2 2026-05-03 21:03 432K
20260503T18Z_MSC_RDPS_WindDir_IsbL-0200_RLatLon0.09_PT077H.grib2 2026-05-03 21:03 448K
20260503T18Z_MSC_RDPS_WindDir_IsbL-0225_RLatLon0.09_PT077H.grib2 2026-05-03 21:03 458K
20260503T18Z_MSC_RDPS_WindDir_IsbL-0250_RLatLon0.09_PT077H.grib2 2026-05-03 21:03 452K
20260503T18Z_MSC_RDPS_WindDir_IsbL-0275_RLatLon0.09_PT077H.grib2 2026-05-03 21:03 468K
20260503T18Z_MSC_RDPS_WindDir_IsbL-0300_RLatLon0.09_PT077H.grib2 2026-05-03 21:03 465K
20260503T18Z_MSC_RDPS_WindDir_IsbL-0350_RLatLon0.09_PT077H.grib2 2026-05-03 21:03 493K
20260503T18Z_MSC_RDPS_WindDir_IsbL-0400_RLatLon0.09_PT077H.grib2 2026-05-03 21:03 510K
20260503T18Z_MSC_RDPS_WindDir_IsbL-0450_RLatLon0.09_PT077H.grib2 2026-05-03 21:03 528K
20260503T18Z_MSC_RDPS_WindDir_IsbL-0500_RLatLon0.09_PT077H.grib2 2026-05-03 21:03 542K
20260503T18Z_MSC_RDPS_WindDir_IsbL-0550_RLatLon0.09_PT077H.grib2 2026-05-03 21:03 559K
20260503T18Z_MSC_RDPS_WindDir_IsbL-0600_RLatLon0.09_PT077H.grib2 2026-05-03 21:03 589K
20260503T18Z_MSC_RDPS_WindDir_IsbL-0650_RLatLon0.09_PT077H.grib2 2026-05-03 21:03 632K
20260503T18Z_MSC_RDPS_WindDir_IsbL-0700_RLatLon0.09_PT077H.grib2 2026-05-03 21:03 673K
20260503T18Z_MSC_RDPS_WindDir_IsbL-0750_RLatLon0.09_PT077H.grib2 2026-05-03 21:03 714K
20260503T18Z_MSC_RDPS_WindDir_IsbL-0800_RLatLon0.09_PT077H.grib2 2026-05-03 21:03 783K
20260503T18Z_MSC_RDPS_WindDir_IsbL-0850_RLatLon0.09_PT077H.grib2 2026-05-03 21:03 858K
20260503T18Z_MSC_RDPS_WindDir_IsbL-0875_RLatLon0.09_PT077H.grib2 2026-05-03 21:03 883K
20260503T18Z_MSC_RDPS_WindDir_IsbL-0900_RLatLon0.09_PT077H.grib2 2026-05-03 21:03 895K
20260503T18Z_MSC_RDPS_WindDir_IsbL-0925_RLatLon0.09_PT077H.grib2 2026-05-03 21:03 906K
20260503T18Z_MSC_RDPS_WindDir_IsbL-0950_RLatLon0.09_PT077H.grib2 2026-05-03 21:03 904K
20260503T18Z_MSC_RDPS_WindDir_IsbL-0970_RLatLon0.09_PT077H.grib2 2026-05-03 21:03 903K
20260503T18Z_MSC_RDPS_WindDir_IsbL-0985_RLatLon0.09_PT077H.grib2 2026-05-03 21:03 913K
20260503T18Z_MSC_RDPS_WindDir_IsbL-1000_RLatLon0.09_PT077H.grib2 2026-05-03 21:03 925K
20260503T18Z_MSC_RDPS_WindDir_IsbL-1015_RLatLon0.09_PT077H.grib2 2026-05-03 21:03 940K
20260503T18Z_MSC_RDPS_WindGust-Max_AGL-10m_RLatLon0.09_PT077H.grib2 2026-05-03 21:03 947K
20260503T18Z_MSC_RDPS_WindGust-Min_AGL-10m_RLatLon0.09_PT077H.grib2 2026-05-03 21:03 1.0M
20260503T18Z_MSC_RDPS_WindGust_AGL-10m_RLatLon0.09_PT077H.grib2 2026-05-03 21:03 1.0M
20260503T18Z_MSC_RDPS_WindSpeed_AGL-10m_RLatLon0.09_PT077H.grib2 2026-05-03 21:03 834K
20260503T18Z_MSC_RDPS_WindSpeed_AGL-120m_RLatLon0.09_PT077H.grib2 2026-05-03 21:03 530K
20260503T18Z_MSC_RDPS_WindSpeed_AGL-40m_RLatLon0.09_PT077H.grib2 2026-05-03 21:03 536K
20260503T18Z_MSC_RDPS_WindSpeed_AGL-80m_RLatLon0.09_PT077H.grib2 2026-05-03 21:03 532K
20260503T18Z_MSC_RDPS_WindSpeed_IsbL-0001_RLatLon0.09_PT077H.grib2 2026-05-03 21:03 334K
20260503T18Z_MSC_RDPS_WindSpeed_IsbL-0005_RLatLon0.09_PT077H.grib2 2026-05-03 21:03 380K
20260503T18Z_MSC_RDPS_WindSpeed_IsbL-0010_RLatLon0.09_PT077H.grib2 2026-05-03 21:03 397K
20260503T18Z_MSC_RDPS_WindSpeed_IsbL-0020_RLatLon0.09_PT077H.grib2 2026-05-03 21:03 419K
20260503T18Z_MSC_RDPS_WindSpeed_IsbL-0030_RLatLon0.09_PT077H.grib2 2026-05-03 21:03 317K
20260503T18Z_MSC_RDPS_WindSpeed_IsbL-0050_RLatLon0.09_PT077H.grib2 2026-05-03 21:03 346K
20260503T18Z_MSC_RDPS_WindSpeed_IsbL-0100_RLatLon0.09_PT077H.grib2 2026-05-03 21:03 433K
20260503T18Z_MSC_RDPS_WindSpeed_IsbL-0150_RLatLon0.09_PT077H.grib2 2026-05-03 21:03 397K
20260503T18Z_MSC_RDPS_WindSpeed_IsbL-0175_RLatLon0.09_PT077H.grib2 2026-05-03 21:03 422K
20260503T18Z_MSC_RDPS_WindSpeed_IsbL-0200_RLatLon0.09_PT077H.grib2 2026-05-03 21:03 440K
20260503T18Z_MSC_RDPS_WindSpeed_IsbL-0225_RLatLon0.09_PT077H.grib2 2026-05-03 21:03 445K
20260503T18Z_MSC_RDPS_WindSpeed_IsbL-0250_RLatLon0.09_PT077H.grib2 2026-05-03 21:03 445K
20260503T18Z_MSC_RDPS_WindSpeed_IsbL-0275_RLatLon0.09_PT077H.grib2 2026-05-03 21:03 463K
20260503T18Z_MSC_RDPS_WindSpeed_IsbL-0300_RLatLon0.09_PT077H.grib2 2026-05-03 21:03 461K
20260503T18Z_MSC_RDPS_WindSpeed_IsbL-0350_RLatLon0.09_PT077H.grib2 2026-05-03 21:03 476K
20260503T18Z_MSC_RDPS_WindSpeed_IsbL-0400_RLatLon0.09_PT077H.grib2 2026-05-03 21:03 462K
20260503T18Z_MSC_RDPS_WindSpeed_IsbL-0450_RLatLon0.09_PT077H.grib2 2026-05-03 21:03 460K
20260503T18Z_MSC_RDPS_WindSpeed_IsbL-0500_RLatLon0.09_PT077H.grib2 2026-05-03 21:03 461K
20260503T18Z_MSC_RDPS_WindSpeed_IsbL-0550_RLatLon0.09_PT077H.grib2 2026-05-03 21:03 462K
20260503T18Z_MSC_RDPS_WindSpeed_IsbL-0600_RLatLon0.09_PT077H.grib2 2026-05-03 21:03 589K
20260503T18Z_MSC_RDPS_WindSpeed_IsbL-0650_RLatLon0.09_PT077H.grib2 2026-05-03 21:03 610K
20260503T18Z_MSC_RDPS_WindSpeed_IsbL-0700_RLatLon0.09_PT077H.grib2 2026-05-03 21:03 676K
20260503T18Z_MSC_RDPS_WindSpeed_IsbL-0750_RLatLon0.09_PT077H.grib2 2026-05-03 21:03 705K
20260503T18Z_MSC_RDPS_WindSpeed_IsbL-0800_RLatLon0.09_PT077H.grib2 2026-05-03 21:03 753K
20260503T18Z_MSC_RDPS_WindSpeed_IsbL-0850_RLatLon0.09_PT077H.grib2 2026-05-03 21:03 815K
20260503T18Z_MSC_RDPS_WindSpeed_IsbL-0875_RLatLon0.09_PT077H.grib2 2026-05-03 21:03 792K
20260503T18Z_MSC_RDPS_WindSpeed_IsbL-0900_RLatLon0.09_PT077H.grib2 2026-05-03 21:03 808K
20260503T18Z_MSC_RDPS_WindSpeed_IsbL-0925_RLatLon0.09_PT077H.grib2 2026-05-03 21:03 818K
20260503T18Z_MSC_RDPS_WindSpeed_IsbL-0950_RLatLon0.09_PT077H.grib2 2026-05-03 21:03 863K
20260503T18Z_MSC_RDPS_WindSpeed_IsbL-0970_RLatLon0.09_PT077H.grib2 2026-05-03 21:03 860K
20260503T18Z_MSC_RDPS_WindSpeed_IsbL-0985_RLatLon0.09_PT077H.grib2 2026-05-03 21:03 853K
20260503T18Z_MSC_RDPS_WindSpeed_IsbL-1000_RLatLon0.09_PT077H.grib2 2026-05-03 21:03 845K
20260503T18Z_MSC_RDPS_WindSpeed_IsbL-1015_RLatLon0.09_PT077H.grib2 2026-05-03 21:03 835K
20260503T18Z_MSC_RDPS_WindU_AGL-10m_RLatLon0.09_PT077H.grib2 2026-05-03 21:03 432K
20260503T18Z_MSC_RDPS_WindU_AGL-120m_RLatLon0.09_PT077H.grib2 2026-05-03 21:03 529K
20260503T18Z_MSC_RDPS_WindU_AGL-40m_RLatLon0.09_PT077H.grib2 2026-05-03 21:03 534K
20260503T18Z_MSC_RDPS_WindU_AGL-80m_RLatLon0.09_PT077H.grib2 2026-05-03 21:03 531K
20260503T18Z_MSC_RDPS_WindU_IsbL-0001_RLatLon0.09_PT077H.grib2 2026-05-03 21:03 243K
20260503T18Z_MSC_RDPS_WindU_IsbL-0005_RLatLon0.09_PT077H.grib2 2026-05-03 21:03 283K
20260503T18Z_MSC_RDPS_WindU_IsbL-0010_RLatLon0.09_PT077H.grib2 2026-05-03 21:03 297K
20260503T18Z_MSC_RDPS_WindU_IsbL-0020_RLatLon0.09_PT077H.grib2 2026-05-03 21:03 316K
20260503T18Z_MSC_RDPS_WindU_IsbL-0030_RLatLon0.09_PT077H.grib2 2026-05-03 21:03 350K
20260503T18Z_MSC_RDPS_WindU_IsbL-0050_RLatLon0.09_PT077H.grib2 2026-05-03 21:03 376K
20260503T18Z_MSC_RDPS_WindU_IsbL-0100_RLatLon0.09_PT077H.grib2 2026-05-03 21:03 331K
20260503T18Z_MSC_RDPS_WindU_IsbL-0150_RLatLon0.09_PT077H.grib2 2026-05-03 21:03 391K
20260503T18Z_MSC_RDPS_WindU_IsbL-0175_RLatLon0.09_PT077H.grib2 2026-05-03 21:03 414K
20260503T18Z_MSC_RDPS_WindU_IsbL-0200_RLatLon0.09_PT077H.grib2 2026-05-03 21:03 432K
20260503T18Z_MSC_RDPS_WindU_IsbL-0225_RLatLon0.09_PT077H.grib2 2026-05-03 21:03 337K
20260503T18Z_MSC_RDPS_WindU_IsbL-0250_RLatLon0.09_PT077H.grib2 2026-05-03 21:03 337K
20260503T18Z_MSC_RDPS_WindU_IsbL-0275_RLatLon0.09_PT077H.grib2 2026-05-03 21:03 351K
20260503T18Z_MSC_RDPS_WindU_IsbL-0300_RLatLon0.09_PT077H.grib2 2026-05-03 21:03 348K
20260503T18Z_MSC_RDPS_WindU_IsbL-0350_RLatLon0.09_PT077H.grib2 2026-05-03 21:03 360K
20260503T18Z_MSC_RDPS_WindU_IsbL-0400_RLatLon0.09_PT077H.grib2 2026-05-03 21:03 467K
20260503T18Z_MSC_RDPS_WindU_IsbL-0450_RLatLon0.09_PT077H.grib2 2026-05-03 21:03 467K
20260503T18Z_MSC_RDPS_WindU_IsbL-0500_RLatLon0.09_PT077H.grib2 2026-05-03 21:03 467K
20260503T18Z_MSC_RDPS_WindU_IsbL-0550_RLatLon0.09_PT077H.grib2 2026-05-03 21:03 468K
20260503T18Z_MSC_RDPS_WindU_IsbL-0600_RLatLon0.09_PT077H.grib2 2026-05-03 21:03 478K
20260503T18Z_MSC_RDPS_WindU_IsbL-0650_RLatLon0.09_PT077H.grib2 2026-05-03 21:03 496K
20260503T18Z_MSC_RDPS_WindU_IsbL-0700_RLatLon0.09_PT077H.grib2 2026-05-03 21:03 516K
20260503T18Z_MSC_RDPS_WindU_IsbL-0750_RLatLon0.09_PT077H.grib2 2026-05-03 21:03 541K
20260503T18Z_MSC_RDPS_WindU_IsbL-0800_RLatLon0.09_PT077H.grib2 2026-05-03 21:03 580K
20260503T18Z_MSC_RDPS_WindU_IsbL-0850_RLatLon0.09_PT077H.grib2 2026-05-03 21:03 631K
20260503T18Z_MSC_RDPS_WindU_IsbL-0875_RLatLon0.09_PT077H.grib2 2026-05-03 21:03 650K
20260503T18Z_MSC_RDPS_WindU_IsbL-0900_RLatLon0.09_PT077H.grib2 2026-05-03 21:03 660K
20260503T18Z_MSC_RDPS_WindU_IsbL-0925_RLatLon0.09_PT077H.grib2 2026-05-03 21:03 661K
20260503T18Z_MSC_RDPS_WindU_IsbL-0950_RLatLon0.09_PT077H.grib2 2026-05-03 21:03 656K
20260503T18Z_MSC_RDPS_WindU_IsbL-0970_RLatLon0.09_PT077H.grib2 2026-05-03 21:03 652K
20260503T18Z_MSC_RDPS_WindU_IsbL-0985_RLatLon0.09_PT077H.grib2 2026-05-03 21:03 649K
20260503T18Z_MSC_RDPS_WindU_IsbL-1000_RLatLon0.09_PT077H.grib2 2026-05-03 21:03 782K
20260503T18Z_MSC_RDPS_WindU_IsbL-1015_RLatLon0.09_PT077H.grib2 2026-05-03 21:03 776K
20260503T18Z_MSC_RDPS_WindV_AGL-10m_RLatLon0.09_PT077H.grib2 2026-05-03 21:03 428K
20260503T18Z_MSC_RDPS_WindV_AGL-120m_RLatLon0.09_PT077H.grib2 2026-05-03 21:03 412K
20260503T18Z_MSC_RDPS_WindV_AGL-40m_RLatLon0.09_PT077H.grib2 2026-05-03 21:03 530K
20260503T18Z_MSC_RDPS_WindV_AGL-80m_RLatLon0.09_PT077H.grib2 2026-05-03 21:03 528K
20260503T18Z_MSC_RDPS_WindV_IsbL-0001_RLatLon0.09_PT077H.grib2 2026-05-03 21:03 293K
20260503T18Z_MSC_RDPS_WindV_IsbL-0005_RLatLon0.09_PT077H.grib2 2026-05-03 21:03 287K
20260503T18Z_MSC_RDPS_WindV_IsbL-0010_RLatLon0.09_PT077H.grib2 2026-05-03 21:03 389K
20260503T18Z_MSC_RDPS_WindV_IsbL-0020_RLatLon0.09_PT077H.grib2 2026-05-03 21:03 319K
20260503T18Z_MSC_RDPS_WindV_IsbL-0030_RLatLon0.09_PT077H.grib2 2026-05-03 21:03 314K
20260503T18Z_MSC_RDPS_WindV_IsbL-0050_RLatLon0.09_PT077H.grib2 2026-05-03 21:03 341K
20260503T18Z_MSC_RDPS_WindV_IsbL-0100_RLatLon0.09_PT077H.grib2 2026-05-03 21:03 420K
20260503T18Z_MSC_RDPS_WindV_IsbL-0150_RLatLon0.09_PT077H.grib2 2026-05-03 21:03 388K
20260503T18Z_MSC_RDPS_WindV_IsbL-0175_RLatLon0.09_PT077H.grib2 2026-05-03 21:03 412K
20260503T18Z_MSC_RDPS_WindV_IsbL-0200_RLatLon0.09_PT077H.grib2 2026-05-03 21:03 429K
20260503T18Z_MSC_RDPS_WindV_IsbL-0225_RLatLon0.09_PT077H.grib2 2026-05-03 21:03 336K
20260503T18Z_MSC_RDPS_WindV_IsbL-0250_RLatLon0.09_PT077H.grib2 2026-05-03 21:03 335K
20260503T18Z_MSC_RDPS_WindV_IsbL-0275_RLatLon0.09_PT077H.grib2 2026-05-03 21:03 350K
20260503T18Z_MSC_RDPS_WindV_IsbL-0300_RLatLon0.09_PT077H.grib2 2026-05-03 21:03 347K
20260503T18Z_MSC_RDPS_WindV_IsbL-0350_RLatLon0.09_PT077H.grib2 2026-05-03 21:03 359K
20260503T18Z_MSC_RDPS_WindV_IsbL-0400_RLatLon0.09_PT077H.grib2 2026-05-03 21:03 362K
20260503T18Z_MSC_RDPS_WindV_IsbL-0450_RLatLon0.09_PT077H.grib2 2026-05-03 21:03 361K
20260503T18Z_MSC_RDPS_WindV_IsbL-0500_RLatLon0.09_PT077H.grib2 2026-05-03 21:03 463K
20260503T18Z_MSC_RDPS_WindV_IsbL-0550_RLatLon0.09_PT077H.grib2 2026-05-03 21:03 465K
20260503T18Z_MSC_RDPS_WindV_IsbL-0600_RLatLon0.09_PT077H.grib2 2026-05-03 21:03 475K
20260503T18Z_MSC_RDPS_WindV_IsbL-0650_RLatLon0.09_PT077H.grib2 2026-05-03 21:03 493K
20260503T18Z_MSC_RDPS_WindV_IsbL-0700_RLatLon0.09_PT077H.grib2 2026-05-03 21:03 512K
20260503T18Z_MSC_RDPS_WindV_IsbL-0750_RLatLon0.09_PT077H.grib2 2026-05-03 21:03 537K
20260503T18Z_MSC_RDPS_WindV_IsbL-0800_RLatLon0.09_PT077H.grib2 2026-05-03 21:03 563K
20260503T18Z_MSC_RDPS_WindV_IsbL-0850_RLatLon0.09_PT077H.grib2 2026-05-03 21:03 616K
20260503T18Z_MSC_RDPS_WindV_IsbL-0875_RLatLon0.09_PT077H.grib2 2026-05-03 21:03 637K
20260503T18Z_MSC_RDPS_WindV_IsbL-0900_RLatLon0.09_PT077H.grib2 2026-05-03 21:03 649K
20260503T18Z_MSC_RDPS_WindV_IsbL-0925_RLatLon0.09_PT077H.grib2 2026-05-03 21:03 658K
20260503T18Z_MSC_RDPS_WindV_IsbL-0950_RLatLon0.09_PT077H.grib2 2026-05-03 21:03 654K
20260503T18Z_MSC_RDPS_WindV_IsbL-0970_RLatLon0.09_PT077H.grib2 2026-05-03 21:03 649K
20260503T18Z_MSC_RDPS_WindV_IsbL-0985_RLatLon0.09_PT077H.grib2 2026-05-03 21:03 646K
20260503T18Z_MSC_RDPS_WindV_IsbL-1000_RLatLon0.09_PT077H.grib2 2026-05-03 21:03 779K
20260503T18Z_MSC_RDPS_WindV_IsbL-1015_RLatLon0.09_PT077H.grib2 2026-05-03 21:03 818K